Weather History for KI35 - October, 2012

Change the Weather History Date:

Tuesday, October 9, 2012

  Actual Average (KLOZ) Record (KLOZ)
Temperature  
Mean Temperature 48 °F 59 °F  
Max Temperature 53 °F 72 °F 83 °F (1980)
Min Temperature 42 °F 47 °F 30 °F (1978)
Degree Days  
Heating Degree Days 18 7  
Month to date heating degree days 49  
Since 1 July heating degree days 96  
Cooling Degree Days 0 1  
Month to date cooling degree days 11  
Year to date cooling degree days 1178  
Moisture  
Dew Point 44 °F    
Average Humidity 86    
Maximum Humidity 100    
Minimum Humidity 67    
Precipitation  
Precipitation 0.00 in 0.09 in 0.53 in (1994)
Month to date precipitation 0.86  
Sea Level Pressure  
Sea Level Pressure 30.13 in    
Wind  
Wind Speed 1 mph ()    
Max Wind Speed 7 mph    
Max Gust Speed -    
Visibility 8.9 miles    
Events      
T = Trace of Precipitation, MM = Missing Value Source: Averaged Metar Reports

Daily Weather History Graph

Daily Weather History Graph

Search for Another Location

Airport or City:

Trip Planner

Search our weather history database for the weather conditions in past years. The results will help you decide how hot, cold, wet, or windy it might be!

Date:

Astronomy

Oct. 09, 2012 Rise Set
Actual Time 7:36 AM EDT 7:04 PM EDT
Civil Twilight 7:10 AM EDT 7:30 PM EDT
Nautical Twilight 6:40 AM EDT 8:00 PM EDT
Astronomical Twilight 6:09 AM EDT 8:30 PM EDT
Moon 1:20 AM EDT (10/9) 3:23 PM EDT (10/9)
Length of Visible Light 12h 20m
Length of Day
11h 28m
Last Quarter, 37% of the Moon is Illuminated
Oct 9
Last Quarter
Oct 15
New
Oct 21
First Quarter
Oct 29
Full
Nov 6
Last Quarter

Hourly Weather History & Observations

Time (EDT) Temp. Windchill Dew Point Humidity Pressure Visibility Wind Dir Wind Speed Gust Speed Precip Events Conditions
12:15 AM 44.6 °F - 42.8 °F 93% 30.16 in 7.0 mi Calm Calm - N/A   Overcast
12:35 AM 44.6 °F - 44.6 °F 100% 30.16 in 7.0 mi Calm Calm - N/A   Overcast
12:55 AM 44.6 °F - 44.6 °F 100% 30.16 in 10.0 mi Calm Calm - N/A   Overcast
1:15 AM 44.6 °F - 44.6 °F 100% 30.15 in 7.0 mi Calm Calm - N/A   Overcast
1:35 AM 44.6 °F - 44.6 °F 100% 30.15 in 7.0 mi Calm Calm - N/A   Overcast
1:55 AM 44.6 °F - 44.6 °F 100% 30.16 in 10.0 mi Calm Calm - N/A   Overcast
2:15 AM 44.6 °F - 44.6 °F 100% 30.16 in 10.0 mi Calm Calm - N/A   Overcast
2:55 AM 44.6 °F - 42.8 °F 93% 30.16 in 10.0 mi Calm Calm - N/A   Overcast
3:15 AM 44.6 °F - 44.6 °F 100% 30.15 in 10.0 mi Calm Calm - N/A   Overcast
3:55 AM 44.6 °F - 44.6 °F 100% 30.15 in 10.0 mi Calm Calm - N/A   Overcast
4:15 AM 44.6 °F - 44.6 °F 100% 30.15 in 10.0 mi Calm Calm - N/A   Overcast
4:35 AM 44.6 °F - 44.6 °F 100% 30.15 in 10.0 mi Calm Calm - N/A   Overcast
4:55 AM 44.6 °F - 44.6 °F 100% 30.15 in 10.0 mi Calm Calm - N/A   Overcast
5:15 AM 44.6 °F - 44.6 °F 100% 30.14 in 10.0 mi Calm Calm - N/A   Overcast
5:35 AM 44.6 °F - 44.6 °F 100% 30.14 in 10.0 mi Calm Calm - N/A   Overcast
5:55 AM 44.6 °F - 44.6 °F 100% 30.15 in 10.0 mi Calm Calm - N/A   Overcast
6:15 AM 44.6 °F - 44.6 °F 100% 30.15 in 10.0 mi Calm Calm - N/A   Overcast
6:35 AM 44.6 °F - 44.6 °F 100% 30.16 in 10.0 mi Calm Calm - N/A   Overcast
6:55 AM 44.6 °F - 44.6 °F 100% 30.16 in 10.0 mi Calm Calm - N/A   Overcast
7:15 AM 44.6 °F - 44.6 °F 100% 30.17 in 10.0 mi Calm Calm - N/A   Overcast
7:35 AM 44.6 °F - 44.6 °F 100% 30.17 in 10.0 mi Calm Calm - N/A   Overcast
7:55 AM 44.6 °F - 44.6 °F 100% 30.17 in 7.0 mi North - - N/A   Overcast
8:15 AM 44.6 °F - 44.6 °F 100% 30.17 in 7.0 mi Calm Calm - N/A   Overcast
8:35 AM 46.4 °F - 44.6 °F 93% 30.18 in 10.0 mi Calm Calm - N/A   Overcast
8:55 AM 46.4 °F - 44.6 °F 93% 30.18 in 10.0 mi Calm Calm - N/A   Overcast
9:15 AM 46.4 °F - 44.6 °F 93% 30.18 in 10.0 mi Calm Calm - N/A   Overcast
9:35 AM 46.4 °F - 44.6 °F 93% 30.18 in 10.0 mi Calm Calm - N/A   Overcast
9:55 AM 46.4 °F - 44.6 °F 93% 30.18 in 10.0 mi Calm Calm - N/A   Overcast
10:15 AM 50.0 °F - 44.6 °F 82% 30.18 in 10.0 mi Calm Calm - N/A   Overcast
10:35 AM 50.0 °F - 44.6 °F 82% 30.17 in 10.0 mi Calm Calm - N/A   Overcast
10:55 AM 50.0 °F - 44.6 °F 82% 30.16 in 10.0 mi Calm Calm - N/A   Overcast
11:15 AM 51.8 °F - 42.8 °F 71% 30.16 in 10.0 mi Calm Calm - N/A   Overcast
11:35 AM 51.8 °F - 42.8 °F 71% 30.17 in 10.0 mi West 3.5 mph - N/A   Overcast
11:55 AM 51.8 °F - 42.8 °F 71% 30.16 in 10.0 mi West 3.5 mph - N/A   Overcast
12:15 PM 51.8 °F - 42.8 °F 71% 30.16 in 10.0 mi NNE 6.9 mph - N/A   Overcast
12:35 PM 51.8 °F - 42.8 °F 71% 30.15 in 10.0 mi NNE 5.8 mph - N/A   Overcast
12:55 PM 51.8 °F - 42.8 °F 71% 30.15 in 10.0 mi Calm Calm - N/A   Overcast
1:15 PM 51.8 °F - 44.6 °F 76% 30.14 in 10.0 mi Calm Calm - N/A   Overcast
1:35 PM 51.8 °F - 42.8 °F 71% 30.13 in 10.0 mi Calm Calm - N/A   Overcast
1:55 PM 51.8 °F - 42.8 °F 71% 30.13 in 10.0 mi Calm Calm - N/A   Overcast
2:15 PM 51.8 °F - 42.8 °F 71% 30.12 in 10.0 mi Calm Calm - N/A   Overcast
2:35 PM 53.6 °F - 44.6 °F 72% 30.11 in 10.0 mi Calm Calm - N/A   Overcast
2:55 PM 53.6 °F - 42.8 °F 67% 30.12 in 10.0 mi Calm Calm - N/A   Overcast
3:15 PM 53.6 °F - 42.8 °F 67% 30.11 in 10.0 mi Calm Calm - N/A   Overcast
3:35 PM 53.6 °F - 42.8 °F 67% 30.11 in 10.0 mi West 3.5 mph - N/A   Overcast
3:55 PM 53.6 °F - 44.6 °F 72% 30.10 in 10.0 mi Calm Calm - N/A   Overcast
4:15 PM 53.6 °F - 44.6 °F 72% 30.10 in 10.0 mi Calm Calm - N/A   Overcast
4:35 PM 53.6 °F - 44.6 °F 72% 30.09 in 10.0 mi Calm Calm - N/A   Overcast
4:55 PM 53.6 °F - 44.6 °F 72% 30.09 in 10.0 mi North - - N/A   Overcast
5:15 PM 53.6 °F - 42.8 °F 67% 30.09 in 10.0 mi SSW 3.5 mph - N/A   Overcast
5:35 PM 53.6 °F - 42.8 °F 67% 30.09 in 10.0 mi SSE 6.9 mph - N/A   Overcast
5:55 PM 53.6 °F - 42.8 °F 67% 30.08 in 10.0 mi ESE 4.6 mph - N/A   Overcast
6:15 PM 53.6 °F - 42.8 °F 67% 30.07 in 10.0 mi ESE 5.8 mph - N/A   Overcast
6:35 PM 53.6 °F - 42.8 °F 67% 30.07 in 10.0 mi ESE 6.9 mph - N/A   Overcast
6:55 PM 51.8 °F - 42.8 °F 71% 30.07 in 10.0 mi South 4.6 mph - N/A   Overcast
7:15 PM 51.8 °F - 42.8 °F 71% 30.07 in 10.0 mi SSW 3.5 mph - N/A   Overcast
7:35 PM 50.0 °F - 42.8 °F 76% 30.07 in 10.0 mi ESE 5.8 mph - N/A   Mostly Cloudy
7:55 PM 50.0 °F - 42.8 °F 76% 30.07 in 10.0 mi Calm Calm - N/A   Scattered Clouds
8:15 PM 46.4 °F - 42.8 °F 87% 30.06 in 10.0 mi Calm Calm - N/A   Scattered Clouds
8:35 PM 46.4 °F 43.5 °F 42.8 °F 87% 30.07 in 10.0 mi North 5.8 mph - N/A   Scattered Clouds
8:55 PM 44.6 °F - 42.8 °F 93% 30.07 in 10.0 mi North - - N/A   Scattered Clouds
9:15 PM 44.6 °F - 42.8 °F 93% 30.07 in 10.0 mi Calm Calm - N/A   Clear
9:35 PM 44.6 °F - 42.8 °F 93% 30.07 in 5.0 mi Calm Calm - N/A   Clear
9:55 PM 44.6 °F - 42.8 °F 93% 30.08 in 7.0 mi Calm Calm - N/A   Clear
10:15 PM 42.8 °F - 42.8 °F 100% 30.08 in 5.0 mi Calm Calm - N/A   Clear
10:35 PM 42.8 °F - 41.0 °F 93% 30.08 in 0.5 mi Calm Calm - N/A   Overcast
10:55 PM 42.8 °F - 41.0 °F 93% 30.08 in 0.5 mi Calm Calm - N/A   Overcast
11:15 PM 42.8 °F - 41.0 °F 93% 30.08 in 0.2 mi Calm Calm - N/A   Overcast
11:35 PM 42.8 °F - 41.0 °F 93% 30.09 in 0.2 mi Calm Calm - N/A   Overcast
11:55 PM 42.8 °F - 41.0 °F 93% 30.08 in 0.2 mi Calm Calm - N/A   Overcast